• In Austria
  • List of Countries
  • For 7 days
  • Water Temperature
  • Satellite Maps
  • Weather Map
  • News
  • Weather Widgets
  • user-avatar
    Login

    Hourly Weather Kwirynow

    Today, 18 September, Tuesday

    Time Temperature Precipitation Wind Pressure Humidity
    00:00 +16°C° 0 mm 2 mps 756 mmHg 68%
    01:00 +15°C° 0 mm 2 mps 756 mmHg 69%
    02:00 +15°C° 0 mm 2 mps 756 mmHg 71%
    03:00 +15°C° 0 mm 2 mps 756 mmHg 73%
    04:00 +15°C° 0 mm 2 mps 756 mmHg 74%
    05:00 +16°C° 0 mm 2 mps 756 mmHg 74%
    06:00 +16°C° 0 mm 2 mps 756 mmHg 73%
    07:00 +17°C° 0 mm 2 mps 756 mmHg 71%
    08:00 +20°C° 0 mm 2 mps 756 mmHg 65%
    09:00 +23°C° 0 mm 2 mps 756 mmHg 59%
    10:00 +25°C° 0 mm 3 mps 756 mmHg 53%
    11:00 +26°C° 0 mm 3 mps 756 mmHg 50%
    12:00 +27°C° 0 mm 3 mps 755 mmHg 47%
    13:00 +28°C° 0 mm 4 mps 755 mmHg 43%
    14:00 +27°C° 0 mm 3 mps 755 mmHg 45%
    15:00 +27°C° 0 mm 3 mps 754 mmHg 46%
    16:00 +27°C° 0 mm 3 mps 754 mmHg 47%
    17:00 +25°C° 0 mm 3 mps 754 mmHg 53%
    18:00 +22°C° 0 mm 3 mps 754 mmHg 58%
    19:00 +21°C° 0 mm 3 mps 754 mmHg 63%
    20:00 +20°C° 0 mm 3 mps 754 mmHg 65%
    21:00 +20°C° 0 mm 3 mps 754 mmHg 66%
    22:00 +19°C° 0 mm 3 mps 754 mmHg 68%
    23:00 +19°C° 0 mm 3 mps 754 mmHg 69%

    Tomorrow, 19 September, Wednesday

    Time Temperature Precipitation Wind Pressure Humidity
    00:00 +18°C° 0 mm 3 mps 754 mmHg 70%
    01:00 +18°C° 0 mm 3 mps 754 mmHg 71%
    02:00 +18°C° 0 mm 3 mps 754 mmHg 71%
    03:00 +17°C° 0 mm 3 mps 754 mmHg 71%
    04:00 +17°C° 0 mm 3 mps 754 mmHg 72%
    05:00 +18°C° 0 mm 3 mps 754 mmHg 69%
    06:00 +18°C° 0 mm 3 mps 754 mmHg 66%
    07:00 +19°C° 0 mm 3 mps 755 mmHg 64%
    08:00 +21°C° 0 mm 3 mps 755 mmHg 58%
    09:00 +23°C° 0 mm 4 mps 755 mmHg 52%
    10:00 +26°C° 0 mm 4 mps 755 mmHg 47%
    11:00 +27°C° 0 mm 4 mps 755 mmHg 44%
    12:00 +28°C° 0 mm 4 mps 755 mmHg 42%
    13:00 +29°C° 0 mm 4 mps 755 mmHg 40%
    14:00 +29°C° 0 mm 3 mps 754 mmHg 42%
    15:00 +29°C° 0 mm 3 mps 754 mmHg 43%
    16:00 +29°C° 0 mm 2 mps 754 mmHg 45%
    17:00 +27°C° 0 mm 2 mps 754 mmHg 50%
    18:00 +25°C° 0 mm 2 mps 755 mmHg 55%
    19:00 +23°C° 0 mm 2 mps 755 mmHg 60%
    20:00 +21°C° 0 mm 2 mps 755 mmHg 62%
    21:00 +21°C° 0 mm 2 mps 755 mmHg 64%
    22:00 +21°C° 0 mm 2 mps 755 mmHg 65%
    23:00 +20°C° 0 mm 2 mps 755 mmHg 67%

    Day after tomorrow, 20 September, Thursday

    Time Temperature Precipitation Wind Pressure Humidity
    00:00 +20°C° 0 mm 2 mps 755 mmHg 68%
    01:00 +19°C° 0 mm 2 mps 755 mmHg 70%
    02:00 +19°C° 0 mm 2 mps 755 mmHg 72%
    03:00 +19°C° 0 mm 2 mps 755 mmHg 73%
    04:00 +19°C° 0 mm 1 mps 755 mmHg 75%
    05:00 +19°C° 0 mm 2 mps 755 mmHg 73%
    06:00 +20°C° 0 mm 2 mps 755 mmHg 71%
    07:00 +20°C° 0 mm 2 mps 755 mmHg 69%
    08:00 +23°C° 0 mm 2 mps 755 mmHg 63%
    09:00 +25°C° 0 mm 2 mps 755 mmHg 57%
    10:00 +27°C° 0 mm 2 mps 755 mmHg 50%
    11:00 +28°C° 0 mm 3 mps 755 mmHg 47%
    12:00 +29°C° 0 mm 3 mps 755 mmHg 44%
    13:00 +30°C° 0 mm 3 mps 754 mmHg 41%
    14:00 +29°C° 0 mm 3 mps 754 mmHg 41%
    15:00 +29°C° 0 mm 3 mps 754 mmHg 42%
    16:00 +29°C° 0 mm 2 mps 754 mmHg 43%
    17:00 +27°C° 0 mm 2 mps 754 mmHg 46%
    18:00 +25°C° 0 mm 2 mps 754 mmHg 50%
    19:00 +23°C° 0 mm 2 mps 754 mmHg 53%
    20:00 +21°C° 0 mm 2 mps 754 mmHg 54%
    21:00 +21°C° 0 mm 2 mps 754 mmHg 55%
    22:00 +20°C° 0 mm 3 mps 753 mmHg 56%
    23:00 +20°C° 0 mm 3 mps 753 mmHg 57%

    21 September, Friday

    Time Temperature Precipitation Wind Pressure Humidity
    00:00 +19°C° 0 mm 3 mps 753 mmHg 58%
    01:00 +19°C° 0 mm 3 mps 753 mmHg 58%
    02:00 +18°C° 0 mm 3 mps 753 mmHg 60%
    03:00 +18°C° 0 mm 3 mps 753 mmHg 61%
    04:00 +17°C° 0 mm 3 mps 752 mmHg 63%
    05:00 +18°C° 0 mm 3 mps 752 mmHg 63%
    06:00 +19°C° 0 mm 4 mps 752 mmHg 63%
    07:00 +19°C° 0 mm 4 mps 752 mmHg 63%
    08:00 +21°C° 0 mm 4 mps 752 mmHg 58%
    09:00 +23°C° 0 mm 5 mps 751 mmHg 53%
    10:00 +26°C° 0 mm 5 mps 751 mmHg 48%
    11:00 +27°C° 0 mm 5 mps 750 mmHg 44%
    12:00 +28°C° 0 mm 5 mps 750 mmHg 41%
    13:00 +29°C° 0 mm 6 mps 749 mmHg 37%
    14:00 +29°C° 0 mm 5 mps 748 mmHg 38%
    15:00 +29°C° 0 mm 5 mps 748 mmHg 39%
    16:00 +29°C° 0 mm 5 mps 747 mmHg 39%
    17:00 +27°C° 0 mm 5 mps 747 mmHg 42%
    18:00 +25°C° 0 mm 5 mps 747 mmHg 45%
    19:00 +23°C° 0 mm 5 mps 746 mmHg 48%
    20:00 +23°C° 0 mm 5 mps 746 mmHg 48%
    21:00 +22°C° 0 mm 5 mps 746 mmHg 48%
    22:00 +22°C° 0 mm 5 mps 746 mmHg 48%
    23:00 +22°C° 0 mm 5 mps 746 mmHg 51%

    22 September, Saturday

    Time Temperature Precipitation Wind Pressure Humidity
    00:00 +21°C° 0 mm 5 mps 746 mmHg 53%
    01:00 +21°C° 0 mm 5 mps 746 mmHg 56%
    02:00 +19°C° 0.4 mm 6 mps 747 mmHg 63%
    03:00 +16°C° 0.4 mm 6 mps 748 mmHg 70%
    04:00 +15°C° 0.4 mm 7 mps 748 mmHg 77%
    05:00 +14°C° 0.4 mm 6 mps 749 mmHg 79%
    06:00 +13°C° 0.4 mm 6 mps 750 mmHg 81%
    07:00 +11°C° 0.4 mm 6 mps 751 mmHg 83%
    08:00 +11°C° 0.5 mm 6 mps 751 mmHg 81%
    09:00 +11°C° 0.5 mm 6 mps 752 mmHg 79%
    10:00 +11°C° 0.5 mm 6 mps 753 mmHg 77%
    11:00 +11°C° 0.1 mm 6 mps 753 mmHg 73%
    12:00 +13°C° 0.1 mm 6 mps 753 mmHg 70%
    13:00 +13°C° 0.1 mm 6 mps 753 mmHg 66%
    14:00 +13°C° 0.1 mm 6 mps 753 mmHg 63%
    15:00 +14°C° 0.1 mm 5 mps 754 mmHg 61%
    16:00 +14°C° 0.1 mm 5 mps 754 mmHg 58%
    17:00 +13°C° 0 mm 4 mps 754 mmHg 61%
    18:00 +12°C° 0 mm 3 mps 754 mmHg 65%
    19:00 +12°C° 0 mm 2 mps 755 mmHg 69%
    20:00 +10°C° 0 mm 3 mps 755 mmHg 69%
    21:00 +10°C° 0 mm 3 mps 755 mmHg 69%
    22:00 +10°C° 0 mm 3 mps 755 mmHg 69%
    23:00 +10°C° 0 mm 3 mps 755 mmHg 70%

    23 September, Sunday

    Time Temperature Precipitation Wind Pressure Humidity
    00:00 +9°C° 0 mm 3 mps 755 mmHg 70%
    01:00 +9°C° 0 mm 3 mps 755 mmHg 71%
    02:00 +9°C° 0 mm 3 mps 755 mmHg 73%
    03:00 +8°C° 0 mm 3 mps 755 mmHg 75%
    04:00 +8°C° 0 mm 3 mps 755 mmHg 77%
    05:00 +9°C° 0 mm 3 mps 756 mmHg 75%
    06:00 +8°C° 0 mm 4 mps 756 mmHg 74%
    07:00 +10°C° 0 mm 4 mps 756 mmHg 73%
    08:00 +12°C° 0 mm 4 mps 755 mmHg 66%
    09:00 +13°C° 0 mm 4 mps 755 mmHg 60%
    10:00 +15°C° 0 mm 5 mps 755 mmHg 54%
    11:00 +15°C° 0 mm 5 mps 755 mmHg 51%
    12:00 +17°C° 0 mm 4 mps 754 mmHg 48%
    13:00 +18°C° 0 mm 4 mps 754 mmHg 45%
    14:00 +18°C° 0 mm 4 mps 753 mmHg 45%
    15:00 +17°C° 0 mm 4 mps 753 mmHg 45%
    16:00 +17°C° 0 mm 3 mps 752 mmHg 45%
    17:00 +16°C° 0 mm 3 mps 751 mmHg 48%
    18:00 +14°C° 0 mm 3 mps 751 mmHg 52%
    19:00 +12°C° 0 mm 3 mps 750 mmHg 56%
    20:00 +13°C° 0 mm 4 mps 749 mmHg 54%
    21:00 +13°C° 0 mm 5 mps 749 mmHg 52%
    22:00 +14°C° 0 mm 6 mps 748 mmHg 50%
    23:00 +13°C° 0.7 mm 6 mps 747 mmHg 55%
    Show more